Voltar ao catálogo

STARLINK-6312

AtivoComunicaçõesVLEO
NORAD 56536·PAYLOAD·🇺🇸 United States

Lançado May 14, 2023 de Cape Canaveral Space Force Station

Loading…

Próximas Passagens (próximas 24 horas)

TLE

AtualizadoSource: CelesTrak SupGP

Época: Sep 14, 2026, 21:41 UTC

1 56536C 23065AK  26257.90395833  .00032376  00000+0  11730-2 0  2574
2 56536  42.9997 238.2466 0000987 252.3443  48.3901 15.27552319    11

Acompanhe STARLINK-6312 em tempo real com AllMySat

Download on the App Store